"Sample Date","Sample Time","Sensor Name","Sample Value","Units","Flow Rate","Sample Interval","Sample Volume","Laser Status","Number Channels","Micron Size 0","Counts/Channel 0","Micron Size 1","Counts/Channel 1","Micron Size 2","Counts/Channel 2","Micron Size 3","Counts/Channel 3","Micron Size 4","Counts/Channel 4","Micron Size 5","Counts/Channel 5","Micron Size 6","Counts/Channel 6","Micron Size 7","Counts/Channel 7","Micron Size 8","Counts/Channel 8","Micron Size 9","Counts/Channel 9","Micron Size 10","Counts/Channel 10","Micron Size 11","Counts/Channel 11","Micron Size 12","Counts/Channel 12","Micron Size 13","Counts/Channel 13","Micron Size 14","Counts/Channel 14","Micron Size 15","Counts/Channel 15","Micron Size 16","Counts/Channel 16","Micron Size 17","Counts/Channel 17","Micron Size 18","Counts/Channel 18","Micron Size 19","Counts/Channel 19","Micron Size 20","Counts/Channel 20","Micron Size 21","Counts/Channel 21","Micron Size 22","Counts/Channel 22","Micron Size 23","Counts/Channel 23","Micron Size 24","Counts/Channel 24","Micron Size 25","Counts/Channel 25","Micron Size 26","Counts/Channel 26","Micron Size 27","Counts/Channel 27","Micron Size 28","Counts/Channel 28","Micron Size 29","Counts/Channel 29","Micron Size 30","Counts/Channel 30","Micron Size 31","Counts/Channel 31"
"07/09/06","15:00:00","AMMA06",31675.000,"cc",28319.834,6.00,2831.984,1,6,0.100,18502.000,0.200,11759.000,0.300,1213.000,0.500,134.000,1.000,67.000,5.000,0
"07/09/06","15:00:06","AMMA06",31724.000,"cc",28335.623,6.00,2833.563,1,6,0.100,18510.000,0.200,11828.000,0.300,1190.000,0.500,143.000,1.000,53.000,5.000,0
"07/09/06","15:00:12","AMMA06",31806.000,"cc",28331.219,6.00,2833.122,1,6,0.100,18700.000,0.200,11751.000,0.300,1166.000,0.500,118.000,1.000,71.000,5.000,0
"07/09/06","15:00:18","AMMA06",31703.000,"cc",28375.992,6.00,2837.599,1,6,0.100,18487.000,0.200,11812.000,0.300,1212.000,0.500,137.000,1.000,55.000,5.000,0
"07/09/06","15:00:24","AMMA06",31335.000,"cc",28283.998,6.00,2828.400,1,6,0.100,18138.000,0.200,11790.000,0.300,1191.000,0.500,148.000,1.000,68.000,5.000,0
"07/09/06","15:00:30","AMMA06",31502.000,"cc",28263.699,6.00,2826.370,1,6,0.100,18486.000,0.200,11584.000,0.300,1231.000,0.500,127.000,1.000,74.000,5.000,0
"07/09/06","15:00:36","AMMA06",31439.000,"cc",28379.363,6.00,2837.937,1,6,0.100,18483.000,0.200,11557.000,0.300,1197.000,0.500,134.000,1.000,68.000,5.000,0
"07/09/06","15:00:42","AMMA06",31612.000,"cc",28327.506,6.00,2832.751,1,6,0.100,18497.000,0.200,11758.000,0.300,1185.000,0.500,109.000,1.000,63.000,5.000,0
"07/09/06","15:00:48","AMMA06",31456.000,"cc",28288.857,6.00,2828.886,1,6,0.100,18523.000,0.200,11559.000,0.300,1182.000,0.500,124.000,1.000,68.000,5.000,0
"07/09/06","15:00:54","AMMA06",31150.000,"cc",28336.111,6.00,2833.611,1,6,0.100,18072.000,0.200,11649.000,0.300,1226.000,0.500,130.000,1.000,73.000,5.000,0
"07/09/06","15:01:00","AMMA06",31135.000,"cc",28311.479,6.00,2831.148,1,6,0.100,18004.000,0.200,11716.000,0.300,1210.000,0.500,134.000,1.000,71.000,5.000,0
"07/09/06","15:01:06","AMMA06",31657.000,"cc",28297.647,6.00,2829.765,1,6,0.100,18350.000,0.200,11936.000,0.300,1178.000,0.500,123.000,1.000,70.000,5.000,0
"07/09/06","15:01:12","AMMA06",31153.000,"cc",28352.762,6.00,2835.276,1,6,0.100,17949.000,0.200,11751.000,0.300,1232.000,0.500,149.000,1.000,72.000,5.000,0
"07/09/06","15:01:18","AMMA06",31479.000,"cc",28351.820,6.00,2835.182,1,6,0.100,18258.000,0.200,11782.000,0.300,1230.000,0.500,144.000,1.000,65.000,5.000,0
"07/09/06","15:01:24","AMMA06",31299.000,"cc",28269.697,6.00,2826.970,1,6,0.100,18150.000,0.200,11754.000,0.300,1205.000,0.500,128.000,1.000,62.000,5.000,0
"07/09/06","15:01:30","AMMA06",31431.000,"cc",28336.315,6.00,2833.632,1,6,0.100,18225.000,0.200,11817.000,0.300,1229.000,0.500,119.000,1.000,41.000,5.000,0
"07/09/06","15:01:36","AMMA06",31402.000,"cc",28294.916,6.00,2829.492,1,6,0.100,18220.000,0.200,11696.000,0.300,1282.000,0.500,136.000,1.000,68.000,5.000,0
"07/09/06","15:01:42","AMMA06",31502.000,"cc",28319.158,6.00,2831.916,1,6,0.100,18311.000,0.200,11703.000,0.300,1277.000,0.500,132.000,1.000,79.000,5.000,0
"07/09/06","15:01:48","AMMA06",31469.000,"cc",28342.656,6.00,2834.266,1,6,0.100,18338.000,0.200,11698.000,0.300,1236.000,0.500,128.000,1.000,69.000,5.000,0
"07/09/06","15:01:54","AMMA06",31266.000,"cc",28313.725,6.00,2831.373,1,6,0.100,17971.000,0.200,11845.000,0.300,1261.000,0.500,121.000,1.000,68.000,5.000,0
"07/09/06","15:02:00","AMMA06",31240.000,"cc",28359.148,6.00,2835.915,1,6,0.100,17920.000,0.200,11892.000,0.300,1252.000,0.500,117.000,1.000,59.000,5.000,0
"07/09/06","15:02:06","AMMA06",31482.000,"cc",28264.887,6.00,2826.489,1,6,0.100,18413.000,0.200,11606.000,0.300,1257.000,0.500,138.000,1.000,68.000,5.000,0
"07/09/06","15:02:12","AMMA06",31190.000,"cc",28292.768,6.00,2829.277,1,6,0.100,17937.000,0.200,11756.000,0.300,1284.000,0.500,143.000,1.000,70.000,5.000,0
"07/09/06","15:02:18","AMMA06",31648.000,"cc",28281.607,6.00,2828.161,1,6,0.100,18208.000,0.200,11939.000,0.300,1294.000,0.500,131.000,1.000,76.000,5.000,0
"07/09/06","15:02:24","AMMA06",31494.000,"cc",28345.721,6.00,2834.572,1,6,0.100,18068.000,0.200,11926.000,0.300,1270.000,0.500,140.000,1.000,90.000,5.000,0
"07/09/06","15:02:30","AMMA06",31484.000,"cc",28348.721,6.00,2834.872,1,6,0.100,18207.000,0.200,11762.000,0.300,1287.000,0.500,156.000,1.000,72.000,5.000,0
"07/09/06","15:02:36","AMMA06",31447.000,"cc",28351.088,6.00,2835.109,1,6,0.100,18126.000,0.200,11908.000,0.300,1221.000,0.500,117.000,1.000,75.000,5.000,0
"07/09/06","15:02:42","AMMA06",31102.000,"cc",28318.705,6.00,2831.871,1,6,0.100,17910.000,0.200,11706.000,0.300,1280.000,0.500,137.000,1.000,69.000,5.000,0
"07/09/06","15:02:48","AMMA06",31314.000,"cc",28294.498,6.00,2829.450,1,6,0.100,17947.000,0.200,11904.000,0.300,1269.000,0.500,115.000,1.000,79.000,5.000,0
"07/09/06","15:02:54","AMMA06",31519.000,"cc",28319.691,6.00,2831.969,1,6,0.100,18138.000,0.200,11951.000,0.300,1232.000,0.500,116.000,1.000,82.000,5.000,0
"07/09/06","15:03:00","AMMA06",31676.000,"cc",28276.859,6.00,2827.686,1,6,0.100,18283.000,0.200,11893.000,0.300,1294.000,0.500,134.000,1.000,72.000,5.000,0
"07/09/06","15:03:06","AMMA06",32081.000,"cc",28248.486,6.00,2824.849,1,6,0.100,18477.000,0.200,12118.000,0.300,1285.000,0.500,118.000,1.000,83.000,5.000,0
"07/09/06","15:03:12","AMMA06",31709.000,"cc",28315.135,6.00,2831.514,1,6,0.100,18145.000,0.200,12050.000,0.300,1291.000,0.500,141.000,1.000,82.000,5.000,0
"07/09/06","15:03:18","AMMA06",31654.000,"cc",28365.486,6.00,2836.549,1,6,0.100,18192.000,0.200,11987.000,0.300,1274.000,0.500,135.000,1.000,66.000,5.000,0
"07/09/06","15:03:24","AMMA06",31468.000,"cc",28335.457,6.00,2833.546,1,6,0.100,18290.000,0.200,11761.000,0.300,1200.000,0.500,129.000,1.000,88.000,5.000,0
"07/09/06","15:03:30","AMMA06",31813.000,"cc",28302.783,6.00,2830.279,1,6,0.100,18295.000,0.200,12010.000,0.300,1309.000,0.500,125.000,1.000,74.000,5.000,0
"07/09/06","15:03:36","AMMA06",31936.000,"cc",28302.080,6.00,2830.208,1,6,0.100,18463.000,0.200,12019.000,0.300,1248.000,0.500,131.000,1.000,75.000,5.000,0
"07/09/06","15:03:42","AMMA06",31578.000,"cc",28324.463,6.00,2832.447,1,6,0.100,18277.000,0.200,11845.000,0.300,1253.000,0.500,141.000,1.000,62.000,5.000,0
"07/09/06","15:03:48","AMMA06",31400.000,"cc",28371.738,6.00,2837.174,1,6,0.100,18115.000,0.200,11801.000,0.300,1298.000,0.500,125.000,1.000,61.000,5.000,0
"07/09/06","15:03:54","AMMA06",31724.000,"cc",28250.381,6.00,2825.038,1,6,0.100,18438.000,0.200,11864.000,0.300,1216.000,0.500,124.000,1.000,82.000,5.000,0
"07/09/06","15:04:00","AMMA06",31298.000,"cc",28274.061,6.00,2827.406,1,6,0.100,18203.000,0.200,11656.000,0.300,1232.000,0.500,131.000,1.000,76.000,5.000,0
"07/09/06","15:04:06","AMMA06",31730.000,"cc",28362.098,6.00,2836.210,1,6,0.100,18365.000,0.200,11842.000,0.300,1323.000,0.500,122.000,1.000,78.000,5.000,0
"07/09/06","15:04:12","AMMA06",31803.000,"cc",28335.859,6.00,2833.586,1,6,0.100,18432.000,0.200,11934.000,0.300,1243.000,0.500,120.000,1.000,74.000,5.000,0
"07/09/06","15:04:18","AMMA06",31467.000,"cc",28303.877,6.00,2830.388,1,6,0.100,18389.000,0.200,11675.000,0.300,1205.000,0.500,133.000,1.000,65.000,5.000,0
"07/09/06","15:04:24","AMMA06",31448.000,"cc",28294.764,6.00,2829.477,1,6,0.100,18215.000,0.200,11809.000,0.300,1211.000,0.500,133.000,1.000,80.000,5.000,0
"07/09/06","15:04:30","AMMA06",31884.000,"cc",28294.656,6.00,2829.466,1,6,0.100,18489.000,0.200,11913.000,0.300,1290.000,0.500,118.000,1.000,74.000,5.000,0
"07/09/06","15:04:36","AMMA06",31686.000,"cc",28318.715,6.00,2831.872,1,6,0.100,18556.000,0.200,11704.000,0.300,1214.000,0.500,135.000,1.000,77.000,5.000,0
"07/09/06","15:04:42","AMMA06",31347.000,"cc",28332.928,6.00,2833.293,1,6,0.100,18183.000,0.200,11715.000,0.300,1238.000,0.500,144.000,1.000,67.000,5.000,0
"07/09/06","15:04:48","AMMA06",31624.000,"cc",28306.356,6.00,2830.636,1,6,0.100,18413.000,0.200,11760.000,0.300,1233.000,0.500,129.000,1.000,89.000,5.000,0
"07/09/06","15:04:54","AMMA06",31730.000,"cc",28341.270,6.00,2834.127,1,6,0.100,18467.000,0.200,11795.000,0.300,1261.000,0.500,135.000,1.000,72.000,5.000,0
"07/09/06","15:05:00","AMMA06",31263.000,"cc",28281.856,6.00,2828.186,1,6,0.100,18142.000,0.200,11694.000,0.300,1226.000,0.500,123.000,1.000,78.000,5.000,0
"07/09/06","15:05:06","AMMA06",31721.000,"cc",28359.900,6.00,2835.990,1,6,0.100,18529.000,0.200,11684.000,0.300,1277.000,0.500,160.000,1.000,70.000,5.000,1.000
"07/09/06","15:05:12","AMMA06",31111.000,"cc",28301.607,6.00,2830.161,1,6,0.100,18025.000,0.200,11655.000,0.300,1210.000,0.500,138.000,1.000,83.000,5.000,0
"07/09/06","15:05:18","AMMA06",31466.000,"cc",28331.227,6.00,2833.123,1,6,0.100,18329.000,0.200,11715.000,0.300,1243.000,0.500,108.000,1.000,71.000,5.000,0
"07/09/06","15:05:24","AMMA06",31462.000,"cc",28303.221,6.00,2830.322,1,6,0.100,18280.000,0.200,11764.000,0.300,1200.000,0.500,127.000,1.000,91.000,5.000,0
"07/09/06","15:05:30","AMMA06",31359.000,"cc",28355.279,6.00,2835.528,1,6,0.100,18094.000,0.200,11891.000,0.300,1201.000,0.500,116.000,1.000,57.000,5.000,0
"07/09/06","15:05:36","AMMA06",31440.000,"cc",28369.830,6.00,2836.983,1,6,0.100,18269.000,0.200,11701.000,0.300,1246.000,0.500,152.000,1.000,72.000,5.000,0
"07/09/06","15:05:42","AMMA06",31350.000,"cc",28272.777,6.00,2827.278,1,6,0.100,18098.000,0.200,11835.000,0.300,1224.000,0.500,133.000,1.000,60.000,5.000,0
"07/09/06","15:05:48","AMMA06",31578.000,"cc",28322.754,6.00,2832.276,1,6,0.100,18390.000,0.200,11700.000,0.300,1271.000,0.500,150.000,1.000,67.000,5.000,0
"07/09/06","15:05:54","AMMA06",31393.000,"cc",28282.115,6.00,2828.212,1,6,0.100,18106.000,0.200,11837.000,0.300,1219.000,0.500,146.000,1.000,85.000,5.000,0
"07/09/06","15:06:00","AMMA06",31437.000,"cc",28326.053,6.00,2832.606,1,6,0.100,18363.000,0.200,11661.000,0.300,1183.000,0.500,147.000,1.000,83.000,5.000,0
"07/09/06","15:06:06","AMMA06",31348.000,"cc",28311.344,6.00,2831.135,1,6,0.100,18221.000,0.200,11686.000,0.300,1255.000,0.500,119.000,1.000,67.000,5.000,0
"07/09/06","15:06:12","AMMA06",31787.000,"cc",28300.014,6.00,2830.002,1,6,0.100,18503.000,0.200,11829.000,0.300,1253.000,0.500,134.000,1.000,68.000,5.000,0
"07/09/06","15:06:18","AMMA06",31283.000,"cc",28318.395,6.00,2831.840,1,6,0.100,18215.000,0.200,11650.000,0.300,1203.000,0.500,132.000,1.000,83.000,5.000,0
"07/09/06","15:06:24","AMMA06",31232.000,"cc",28327.447,6.00,2832.745,1,6,0.100,18200.000,0.200,11647.000,0.300,1192.000,0.500,123.000,1.000,70.000,5.000,0
"07/09/06","15:06:30","AMMA06",31298.000,"cc",28281.998,6.00,2828.200,1,6,0.100,18276.000,0.200,11597.000,0.300,1201.000,0.500,140.000,1.000,84.000,5.000,0
"07/09/06","15:06:36","AMMA06",31213.000,"cc",28307.650,6.00,2830.765,1,6,0.100,18333.000,0.200,11450.000,0.300,1222.000,0.500,135.000,1.000,73.000,5.000,0
"07/09/06","15:06:42","AMMA06",31282.000,"cc",28383.902,6.00,2838.390,1,6,0.100,18216.000,0.200,11676.000,0.300,1172.000,0.500,147.000,1.000,71.000,5.000,0
"07/09/06","15:06:48","AMMA06",31381.000,"cc",28302.070,6.00,2830.207,1,6,0.100,18196.000,0.200,11778.000,0.300,1239.000,0.500,120.000,1.000,48.000,5.000,0
"07/09/06","15:06:54","AMMA06",31389.000,"cc",28298.770,6.00,2829.877,1,6,0.100,18417.000,0.200,11553.000,0.300,1225.000,0.500,123.000,1.000,71.000,5.000,0
"07/09/06","15:07:00","AMMA06",31304.000,"cc",28318.705,6.00,2831.871,1,6,0.100,18181.000,0.200,11760.000,0.300,1155.000,0.500,121.000,1.000,87.000,5.000,0
"07/09/06","15:07:06","AMMA06",30980.000,"cc",28347.846,6.00,2834.785,1,6,0.100,18211.000,0.200,11422.000,0.300,1160.000,0.500,122.000,1.000,65.000,5.000,0
"07/09/06","15:07:12","AMMA06",31124.000,"cc",28328.613,6.00,2832.862,1,6,0.100,17992.000,0.200,11775.000,0.300,1176.000,0.500,108.000,1.000,73.000,5.000,0
"07/09/06","15:07:18","AMMA06",31300.000,"cc",28325.541,6.00,2832.554,1,6,0.100,18386.000,0.200,11534.000,0.300,1168.000,0.500,140.000,1.000,72.000,5.000,0
"07/09/06","15:07:24","AMMA06",31119.000,"cc",28260.408,6.00,2826.041,1,6,0.100,18219.000,0.200,11511.000,0.300,1216.000,0.500,106.000,1.000,67.000,5.000,0
"07/09/06","15:07:30","AMMA06",31439.000,"cc",28331.791,6.00,2833.179,1,6,0.100,18385.000,0.200,11685.000,0.300,1169.000,0.500,124.000,1.000,76.000,5.000,0
"07/09/06","15:07:36","AMMA06",31239.000,"cc",28313.746,6.00,2831.375,1,6,0.100,18222.000,0.200,11556.000,0.300,1238.000,0.500,134.000,1.000,89.000,5.000,0
"07/09/06","15:07:42","AMMA06",30976.000,"cc",28328.033,6.00,2832.804,1,6,0.100,18297.000,0.200,11406.000,0.300,1090.000,0.500,112.000,1.000,71.000,5.000,0
"07/09/06","15:07:48","AMMA06",31484.000,"cc",28331.209,6.00,2833.121,1,6,0.100,18617.000,0.200,11432.000,0.300,1243.000,0.500,133.000,1.000,59.000,5.000,0
"07/09/06","15:07:54","AMMA06",31224.000,"cc",28310.252,6.00,2831.025,1,6,0.100,18323.000,0.200,11599.000,0.300,1115.000,0.500,114.000,1.000,73.000,5.000,0
"07/09/06","15:08:00","AMMA06",31189.000,"cc",28321.805,6.00,2832.181,1,6,0.100,18372.000,0.200,11444.000,0.300,1193.000,0.500,101.000,1.000,79.000,5.000,0
"07/09/06","15:08:06","AMMA06",31396.000,"cc",28380.805,6.00,2838.081,1,6,0.100,18452.000,0.200,11602.000,0.300,1144.000,0.500,134.000,1.000,64.000,5.000,0
"07/09/06","15:08:12","AMMA06",31152.000,"cc",28277.010,6.00,2827.701,1,6,0.100,18211.000,0.200,11593.000,0.300,1145.000,0.500,137.000,1.000,66.000,5.000,0
"07/09/06","15:08:18","AMMA06",31342.000,"cc",28301.127,6.00,2830.113,1,6,0.100,18279.000,0.200,11702.000,0.300,1175.000,0.500,118.000,1.000,68.000,5.000,0
"07/09/06","15:08:24","AMMA06",31739.000,"cc",28325.809,6.00,2832.581,1,6,0.100,18634.000,0.200,11735.000,0.300,1164.000,0.500,116.000,1.000,90.000,5.000,0
"07/09/06","15:08:30","AMMA06",31424.000,"cc",28310.115,6.00,2831.012,1,6,0.100,18370.000,0.200,11689.000,0.300,1173.000,0.500,127.000,1.000,65.000,5.000,0
"07/09/06","15:08:36","AMMA06",30689.000,"cc",28304.815,6.00,2830.482,1,6,0.100,18051.000,0.200,11285.000,0.300,1147.000,0.500,148.000,1.000,58.000,5.000,0
"07/09/06","15:08:42","AMMA06",31208.000,"cc",28355.318,6.00,2835.532,1,6,0.100,18270.000,0.200,11559.000,0.300,1188.000,0.500,123.000,1.000,68.000,5.000,0
"07/09/06","15:08:48","AMMA06",31331.000,"cc",28282.328,6.00,2828.233,1,6,0.100,18289.000,0.200,11613.000,0.300,1198.000,0.500,153.000,1.000,78.000,5.000,0
"07/09/06","15:08:54","AMMA06",31155.000,"cc",28346.338,6.00,2834.634,1,6,0.100,18219.000,0.200,11567.000,0.300,1195.000,0.500,105.000,1.000,69.000,5.000,0
"07/09/06","15:09:00","AMMA06",31496.000,"cc",28314.668,6.00,2831.467,1,6,0.100,18463.000,0.200,11634.000,0.300,1204.000,0.500,134.000,1.000,61.000,5.000,0
"07/09/06","15:09:06","AMMA06",31645.000,"cc",28320.088,6.00,2832.009,1,6,0.100,18469.000,0.200,11778.000,0.300,1203.000,0.500,123.000,1.000,72.000,5.000,0
"07/09/06","15:09:12","AMMA06",31415.000,"cc",28313.721,6.00,2831.372,1,6,0.100,18311.000,0.200,11686.000,0.300,1222.000,0.500,128.000,1.000,68.000,5.000,0
"07/09/06","15:09:18","AMMA06",31319.000,"cc",28382.926,6.00,2838.293,1,6,0.100,18058.000,0.200,11791.000,0.300,1273.000,0.500,111.000,1.000,86.000,5.000,0
"07/09/06","15:09:24","AMMA06",31619.000,"cc",28284.447,6.00,2828.445,1,6,0.100,18369.000,0.200,11862.000,0.300,1158.000,0.500,138.000,1.000,92.000,5.000,0
"07/09/06","15:09:30","AMMA06",31260.000,"cc",28296.397,6.00,2829.640,1,6,0.100,18291.000,0.200,11547.000,0.300,1241.000,0.500,118.000,1.000,63.000,5.000,0
"07/09/06","15:09:36","AMMA06",31416.000,"cc",28295.447,6.00,2829.545,1,6,0.100,18283.000,0.200,11712.000,0.300,1227.000,0.500,120.000,1.000,74.000,5.000,0
"07/09/06","15:09:42","AMMA06",31093.000,"cc",28307.088,6.00,2830.709,1,6,0.100,18048.000,0.200,11659.000,0.300,1192.000,0.500,131.000,1.000,63.000,5.000,0
"07/09/06","15:09:48","AMMA06",31479.000,"cc",28336.842,6.00,2833.684,1,6,0.100,18209.000,0.200,11824.000,0.300,1254.000,0.500,123.000,1.000,69.000,5.000,0
"07/09/06","15:09:54","AMMA06",31322.000,"cc",28330.465,6.00,2833.047,1,6,0.100,18147.000,0.200,11738.000,0.300,1234.000,0.500,135.000,1.000,68.000,5.000,0
"07/09/06","15:10:00","AMMA06",31383.000,"cc",28293.773,6.00,2829.377,1,6,0.100,18191.000,0.200,11756.000,0.300,1215.000,0.500,150.000,1.000,71.000,5.000,0
"07/09/06","15:10:06","AMMA06",31550.000,"cc",28355.693,6.00,2835.570,1,6,0.100,18224.000,0.200,11856.000,0.300,1254.000,0.500,140.000,1.000,76.000,5.000,0
"07/09/06","15:10:12","AMMA06",31385.000,"cc",28311.777,6.00,2831.178,1,6,0.100,18062.000,0.200,11929.000,0.300,1179.000,0.500,149.000,1.000,66.000,5.000,0
"07/09/06","15:10:18","AMMA06",31321.000,"cc",28310.506,6.00,2831.051,1,6,0.100,17879.000,0.200,11966.000,0.300,1273.000,0.500,119.000,1.000,84.000,5.000,0
"07/09/06","15:10:24","AMMA06",31685.000,"cc",28299.635,6.00,2829.964,1,6,0.100,18061.000,0.200,12187.000,0.300,1212.000,0.500,146.000,1.000,79.000,5.000,0
"07/09/06","15:10:30","AMMA06",31356.000,"cc",28327.705,6.00,2832.771,1,6,0.100,17951.000,0.200,12001.000,0.300,1216.000,0.500,113.000,1.000,75.000,5.000,0
"07/09/06","15:10:36","AMMA06",31638.000,"cc",28331.373,6.00,2833.138,1,6,0.100,18085.000,0.200,12109.000,0.300,1242.000,0.500,140.000,1.000,62.000,5.000,0
"07/09/06","15:10:42","AMMA06",31363.000,"cc",28317.676,6.00,2831.768,1,6,0.100,18033.000,0.200,11828.000,0.300,1293.000,0.500,145.000,1.000,64.000,5.000,0
"07/09/06","15:10:48","AMMA06",31823.000,"cc",28333.031,6.00,2833.303,1,6,0.100,18177.000,0.200,12148.000,0.300,1271.000,0.500,144.000,1.000,83.000,5.000,0
"07/09/06","15:10:54","AMMA06",31628.000,"cc",28349.047,6.00,2834.905,1,6,0.100,17934.000,0.200,12196.000,0.300,1285.000,0.500,130.000,1.000,83.000,5.000,0
"07/09/06","15:11:01","AMMA06",31383.000,"cc",28317.344,6.00,2831.735,1,6,0.100,17914.000,0.200,12027.000,0.300,1239.000,0.500,122.000,1.000,81.000,5.000,0
"07/09/06","15:11:07","AMMA06",31422.000,"cc",28300.443,6.00,2830.044,1,6,0.100,17825.000,0.200,12117.000,0.300,1270.000,0.500,125.000,1.000,85.000,5.000,0
"07/09/06","15:11:13","AMMA06",31519.000,"cc",28312.832,6.00,2831.283,1,6,0.100,17948.000,0.200,12015.000,0.300,1332.000,0.500,148.000,1.000,76.000,5.000,0
"07/09/06","15:11:19","AMMA06",31242.000,"cc",28339.625,6.00,2833.963,1,6,0.100,17860.000,0.200,11949.000,0.300,1237.000,0.500,116.000,1.000,80.000,5.000,0
"07/09/06","15:11:25","AMMA06",31355.000,"cc",28311.225,6.00,2831.123,1,6,0.100,17957.000,0.200,11927.000,0.300,1297.000,0.500,114.000,1.000,60.000,5.000,0
"07/09/06","15:11:31","AMMA06",31883.000,"cc",28278.051,6.00,2827.805,1,6,0.100,18382.000,0.200,12028.000,0.300,1255.000,0.500,140.000,1.000,78.000,5.000,0
"07/09/06","15:11:37","AMMA06",31423.000,"cc",28312.520,6.00,2831.252,1,6,0.100,17878.000,0.200,12173.000,0.300,1150.000,0.500,141.000,1.000,81.000,5.000,0
"07/09/06","15:11:43","AMMA06",31447.000,"cc",28376.734,6.00,2837.674,1,6,0.100,18217.000,0.200,11825.000,0.300,1212.000,0.500,131.000,1.000,62.000,5.000,0
"07/09/06","15:11:49","AMMA06",31223.000,"cc",28268.990,6.00,2826.899,1,6,0.100,18014.000,0.200,11752.000,0.300,1256.000,0.500,125.000,1.000,76.000,5.000,0
"07/09/06","15:11:55","AMMA06",31497.000,"cc",28322.494,6.00,2832.250,1,6,0.100,18197.000,0.200,11855.000,0.300,1239.000,0.500,131.000,1.000,75.000,5.000,0
"07/09/06","15:12:01","AMMA06",34299.000,"cc",28361.055,6.00,2836.106,1,6,0.100,20690.000,0.200,12160.000,0.300,1246.000,0.500,125.000,1.000,78.000,5.000,0
"07/09/06","15:12:07","AMMA06",38141.000,"cc",28310.473,6.00,2831.047,1,6,0.100,24285.000,0.200,12374.000,0.300,1272.000,0.500,130.000,1.000,80.000,5.000,0
"07/09/06","15:12:13","AMMA06",41313.000,"cc",28302.227,6.00,2830.223,1,6,0.100,27198.000,0.200,12592.000,0.300,1330.000,0.500,139.000,1.000,54.000,5.000,0
"07/09/06","15:12:19","AMMA06",47256.000,"cc",28320.014,6.00,2832.002,1,6,0.100,32907.000,0.200,12819.000,0.300,1339.000,0.500,127.000,1.000,64.000,5.000,0
"07/09/06","15:12:25","AMMA06",50408.000,"cc",28308.943,6.00,2830.895,1,6,0.100,35867.000,0.200,12985.000,0.300,1368.000,0.500,125.000,1.000,63.000,5.000,0
"07/09/06","15:12:31","AMMA06",50007.000,"cc",28320.055,6.00,2832.006,1,6,0.100,35405.000,0.200,13043.000,0.300,1367.000,0.500,121.000,1.000,71.000,5.000,0
"07/09/06","15:12:37","AMMA06",50428.000,"cc",28285.477,6.00,2828.548,1,6,0.100,35933.000,0.200,12962.000,0.300,1328.000,0.500,121.000,1.000,84.000,5.000,0
"07/09/06","15:12:43","AMMA06",52912.000,"cc",28343.873,6.00,2834.388,1,6,0.100,38238.000,0.200,13211.000,0.300,1287.000,0.500,107.000,1.000,69.000,5.000,0
"07/09/06","15:12:49","AMMA06",52810.000,"cc",28290.586,6.00,2829.059,1,6,0.100,37982.000,0.200,13226.000,0.300,1386.000,0.500,120.000,1.000,96.000,5.000,0
"07/09/06","15:12:55","AMMA06",51413.000,"cc",28336.793,6.00,2833.679,1,6,0.100,36666.000,0.200,13236.000,0.300,1323.000,0.500,125.000,1.000,63.000,5.000,0
"07/09/06","15:13:01","AMMA06",49664.000,"cc",28298.164,6.00,2829.817,1,6,0.100,35026.000,0.200,13113.000,0.300,1323.000,0.500,134.000,1.000,68.000,5.000,0
"07/09/06","15:13:07","AMMA06",48728.000,"cc",28289.451,6.00,2828.945,1,6,0.100,34112.000,0.200,13066.000,0.300,1330.000,0.500,134.000,1.000,86.000,5.000,0
"07/09/06","15:13:13","AMMA06",51912.000,"cc",28275.799,6.00,2827.580,1,6,0.100,37251.000,0.200,13150.000,0.300,1316.000,0.500,136.000,1.000,59.000,5.000,0
"07/09/06","15:13:19","AMMA06",50259.000,"cc",28328.359,6.00,2832.836,1,6,0.100,35932.000,0.200,12813.000,0.300,1315.000,0.500,132.000,1.000,67.000,5.000,0
"07/09/06","15:13:25","AMMA06",49970.000,"cc",28368.639,6.00,2836.864,1,6,0.100,35505.000,0.200,12968.000,0.300,1309.000,0.500,122.000,1.000,66.000,5.000,0
"07/09/06","15:13:31","AMMA06",53801.000,"cc",28325.385,6.00,2832.539,1,6,0.100,39129.000,0.200,13222.000,0.300,1249.000,0.500,133.000,1.000,68.000,5.000,0
"07/09/06","15:13:37","AMMA06",48110.000,"cc",28307.322,6.00,2830.732,1,6,0.100,33936.000,0.200,12684.000,0.300,1288.000,0.500,133.000,1.000,69.000,5.000,0
"07/09/06","15:13:43","AMMA06",47628.000,"cc",28319.102,6.00,2831.910,1,6,0.100,33149.000,0.200,12925.000,0.300,1335.000,0.500,139.000,1.000,80.000,5.000,0
"07/09/06","15:13:49","AMMA06",54210.000,"cc",28325.975,6.00,2832.598,1,6,0.100,39668.000,0.200,13018.000,0.300,1292.000,0.500,149.000,1.000,83.000,5.000,0
"07/09/06","15:13:55","AMMA06",54682.000,"cc",28315.932,6.00,2831.593,1,6,0.100,40227.000,0.200,12935.000,0.300,1330.000,0.500,136.000,1.000,54.000,5.000,0
"07/09/06","15:14:01","AMMA06",54551.000,"cc",28327.373,6.00,2832.738,1,6,0.100,39820.000,0.200,13172.000,0.300,1366.000,0.500,127.000,1.000,66.000,5.000,0
"07/09/06","15:14:07","AMMA06",54934.000,"cc",28270.621,6.00,2827.062,1,6,0.100,40187.000,0.200,13252.000,0.300,1315.000,0.500,122.000,1.000,58.000,5.000,0
"07/09/06","15:14:13","AMMA06",54632.000,"cc",28338.734,6.00,2833.874,1,6,0.100,39759.000,0.200,13317.000,0.300,1369.000,0.500,115.000,1.000,72.000,5.000,0
"07/09/06","15:14:19","AMMA06",54885.000,"cc",28276.190,6.00,2827.619,1,6,0.100,40218.000,0.200,13143.000,0.300,1338.000,0.500,119.000,1.000,67.000,5.000,0